[[{"header":{"parameterUnit":"m.s-1","parameterCategory":1,"la1":30.2991,"la2":30.254,"lo1":-89.0895,"lo2":-89.0444,"dy":0.0017,"dx":0.0017,"nx":28,"ny":28,"refTime":"2023-10-19T09:00:00:Z","depth":0,"parameterNumber":2,"parameterNumberName":"U-component_of_WINDS"},"data":[0,0,0,0,0,0,0,0,0,0,0,0,0,0,0,0,0,0,0,0,0,0,0,0,0,0,0,0,0,0,0,0,0,0,0,0,0,0,0,0,0,0,0,0,0,0,0,0,0,0,0,0,0,0,0,0,0,0,4.9404,4.9405,0,4.9546,4.9548,4.9549,4.9482,4.9479,4.9475,4.9472,4.962,4.9627,4.9634,0,0,0,0,0,0,0,0,0,0,0,0,0,4.9074,4.908,4.9403,4.9405,4.9407,4.9546,4.9548,4.955,4.9483,4.9479,4.9474,4.947,4.9617,4.9626,4.9635,0,0,0,0,0,0,0,0,0,0,0,0,0,4.9217,4.9082,4.9403,4.939,4.9391,4.9546,4.9548,4.955,4.9484,4.9479,4.9473,4.9468,4.9614,4.9625,4.9636,4.9812,0,0,4.9669,4.9674,0,0,0,0,0,0,0,0,4.9209,4.9229,4.939,4.9392,4.9392,4.9491,4.9486,4.9638,4.9485,4.9449,4.9472,4.9465,4.9581,4.9595,4.9633,4.9819,4.9825,4.967,4.9677,4.9682,4.9685,0,0,0,0,0,0,0,4.9199,4.9223,4.946,4.9393,4.9394,4.9378,4.9392,4.9514,4.9544,4.9451,4.9447,4.9465,4.9581,4.9623,4.9636,4.9827,4.967,4.968,4.9686,4.9691,5.0164,5.017,0,0,0,0,0,0,4.9189,4.9215,4.9455,4.9464,4.9285,4.9388,4.9404,4.9465,4.9542,4.9549,4.9469,4.9461,4.9607,4.9624,4.9641,4.9852,4.9681,4.9692,4.9698,5.0158,5.0165,5.0172,0,0,0,0,0,0,4.9183,4.9212,4.945,4.9338,4.9367,4.94,4.9468,4.947,4.9512,4.9555,4.956,4.9507,4.9603,4.9626,4.977,4.9856,4.9697,4.9707,5.0151,5.016,5.0168,5.0275,0,0,0,0,0,0,4.9173,4.9209,4.9277,4.934,4.9374,4.9576,4.9473,4.9477,4.9531,4.9522,4.9592,4.9599,4.9601,4.9754,4.9781,4.9868,4.9715,5.0143,5.0155,5.0166,5.0264,5.0287,5.0306,0,0,0,0,0,4.9162,4.9302,4.928,4.931,4.9458,4.9581,4.96,4.9599,4.9539,4.9606,4.9634,4.9596,4.9842,4.9769,4.9799,4.9891,5.0138,5.0152,5.0165,5.0255,5.0282,5.0306,0,0,0,0,0,0,4.9248,4.931,4.9287,4.9451,4.9511,4.9569,4.9655,4.9628,4.9707,4.9695,4.9691,4.9708,4.9857,4.9888,4.9805,5.0065,4.9981,5.0001,5.0039,5.0066,5.0086,5.0075,4.9724,0,0,0,0,0,4.9286,4.938,4.9429,4.9569,4.96,4.9623,4.9676,4.967,4.9732,4.9758,4.9796,4.9858,4.9949,5.0009,5.0095,5.0268,5.0282,5.0347,5.0368,5.0385,5.0402,5.0495,5.0524,5.0216,5.0216,5.0216,0,0,4.9365,4.9411,4.947,4.9588,4.9633,4.9731,4.9644,4.9752,4.9824,4.9774,4.9912,4.9942,5.0011,5.017,5.0242,5.0201,5.049,5.0402,5.0415,5.0423,5.0512,5.0541,5.0567,5.0225,5.0224,5.0222,0,0,4.956,4.9604,4.9725,4.9773,4.9843,4.9857,4.9886,4.9948,4.9966,5.0104,5.0068,5.0155,5.0312,5.0362,5.0409,5.0622,5.059,5.065,5.076,5.0851,5.0875,5.0896,5.0972,5.0999,5.0668,5.0668,5.0668,0,4.965,4.9795,4.9791,4.9901,4.9953,4.9912,5.0034,5.0081,5.0176,5.0213,5.0166,5.0362,5.0406,5.0575,5.0627,5.0667,5.07,5.0642,5.0872,5.0893,5.0913,5.0985,5.1013,5.0675,5.0674,5.0673,5.0673,0,4.9902,5.0003,5.0093,5.0185,5.0248,5.0364,5.0377,5.0441,5.043,5.0448,5.0589,5.064,5.0736,5.0776,5.0766,5.0945,5.0917,5.0871,5.0786,5.0949,5.1017,5.1044,5.0684,5.0682,5.068,5.0678,0,0,5.0155,5.0242,5.0275,5.0316,5.039,5.0469,5.0583,5.0675,5.073,5.0797,5.0892,5.1026,5.0984,5.1037,5.1032,5.1112,5.1277,5.1056,5.1058,5.1095,5.1476,5.1509,5.1541,5.1257,5.1262,5.1266,5.147,0,5.0354,5.0552,5.0552,5.0735,5.0829,5.0791,5.089,5.0946,5.0967,5.1049,5.1072,5.1167,5.1104,5.1136,5.1213,5.1241,5.1353,5.1226,5.1345,5.1349,5.1328,5.1576,5.1612,5.1802,5.1496,5.15,5.1504,0,5.0612,5.0687,5.088,5.094,5.0979,5.1068,5.1153,5.1232,5.1295,5.1305,5.1363,5.1347,5.1462,5.1375,5.1534,5.1447,5.1496,5.1517,5.1524,5.1535,5.1436,5.1593,5.1862,5.1891,5.1545,5.1542,5.1539,0,5.0776,5.0925,5.1059,5.1096,5.1169,5.1233,5.1266,5.1324,5.138,5.1454,5.149,5.1577,5.1625,5.1693,5.17,5.1635,5.1861,5.1773,5.1871,5.1871,5.192,5.1917,5.22,5.1953,5.1953,5.1952,5.1951,0,5.0998,5.1117,5.1134,5.1216,5.1349,5.1347,5.1478,5.1506,5.1558,5.1646,5.1619,5.1701,5.1706,5.1791,5.1798,5.1928,5.1951,5.1961,5.1961,5.1963,5.1962,5.1995,5.1981,5.196,5.1958,5.1956,5.1955,0,5.1203,5.1219,5.1362,5.142,5.1437,5.1532,5.1582,5.1661,5.1678,5.1789,5.1815,5.1844,5.1943,5.1957,5.2073,5.2077,5.2233,5.222,5.2212,5.221,5.2306,5.2297,5.262,5.2662,5.2389,5.2391,5.2394,0,5.1343,5.1434,5.1501,5.1557,5.1594,5.1685,5.1741,5.1744,5.1803,5.1882,5.1951,5.2047,5.2124,5.2283,5.2314,5.2402,5.2391,5.2498,5.2404,5.2403,5.2391,5.2385,5.2394,5.2516,5.2519,5.2521,5.2523,0,5.159,5.1593,5.1675,5.176,5.1828,5.1895,5.1958,5.2006,5.2016,5.2085,5.2185,5.2244,5.2362,5.2457,5.2545,5.2579,5.2554,5.2553,5.258,5.2582,5.2573,5.2578,5.226,5.2545,5.2543,5.2542,5.254,5.2539,5.1766,5.1844,5.1903,5.1995,5.2043,5.2103,5.2179,5.2207,5.229,5.2385,5.2382,5.2492,5.2552,5.2667,5.2708,5.2794,5.2759,5.2799,5.2808,5.2818,5.2827,5.256,5.281,5.2809,5.2809,5.2808,5.2808,0,5.201,5.2046,5.2131,5.222,5.2292,5.2261,5.233,5.2392,5.2489,5.2548,5.2623,5.2738,5.283,5.2869,5.2959,5.3021,5.3011,5.3044,5.3039,5.3048,5.2854,5.2821,5.3051,5.3051,5.305,5.305,5.305,5.305,5.2145,5.2276,5.2286,5.2441,5.2476,5.2583,5.2624,5.2679,5.2726,5.2855,5.2931,5.2955,5.3006,5.31,5.3183,5.3192,5.3226,5.3264,5.3268,5.3086,5.3061,5.3038,5.3007,5.3272,5.3272,5.3455,5.3456,5.3458]},{"header":{"parameterUnit":"m.s-1","parameterCategory":1,"la1":30.2991,"la2":30.254,"lo1":-89.0895,"lo2":-89.0444,"dy":0.0017,"dx":0.0017,"nx":28,"ny":28,"refTime":"2023-10-19T09:00:00:Z","depth":0,"parameterNumber":3,"parameterNumberName":"V-component_of_WINDS"},"data":[0,0,0,0,0,0,0,0,0,0,0,0,0,0,0,0,0,0,0,0,0,0,0,0,0,0,0,0,0,0,0,0,0,0,0,0,0,0,0,0,0,0,0,0,0,0,0,0,0,0,0,0,0,0,0,0,0,0,1.9796,1.9797,0,1.9866,1.9867,1.9868,1.9861,1.986,1.9859,1.9858,1.9928,1.9931,1.9934,0,0,0,0,0,0,0,0,0,0,0,0,0,1.9654,1.9657,1.9796,1.9797,1.9798,1.9866,1.9867,1.9868,1.9861,1.986,1.9859,1.9857,1.9927,1.993,1.9934,0,0,0,0,0,0,0,0,0,0,0,0,0,1.9719,1.9658,1.9796,1.9803,1.9804,1.9866,1.9867,1.9869,1.9862,1.986,1.9858,1.9857,1.9926,1.993,1.9934,1.9994,0,0,1.9948,1.9949,0,0,0,0,0,0,0,0,1.9715,1.9724,1.9801,1.9803,1.9804,1.9853,1.9843,1.991,1.9862,1.984,1.9858,1.9856,1.9904,1.991,1.9927,1.9997,2.0,1.9948,1.9951,1.9952,1.9954,0,0,0,0,0,0,0,1.9711,1.9721,1.9824,1.9802,1.9804,1.9802,1.9809,1.9856,1.988,1.9842,1.9841,1.985,1.9905,1.9923,1.9929,2.0001,1.9948,1.9952,1.9954,1.9956,2.0121,2.0123,0,0,0,0,0,0,1.9705,1.9718,1.9822,1.9826,1.9755,1.9805,1.9814,1.9839,1.988,1.9884,1.9851,1.9849,1.9916,1.9924,1.9931,2.0002,1.9952,1.9956,1.9959,2.012,2.0122,2.0124,0,0,0,0,0,0,1.9702,1.9714,1.9819,1.9772,1.9785,1.981,1.9838,1.9841,1.986,1.9887,1.9891,1.9865,1.9915,1.9925,1.9978,2.0005,1.9958,1.9962,2.0117,2.012,2.0123,2.0146,0,0,0,0,0,0,1.9698,1.9713,1.9737,1.9772,1.9787,1.9866,1.984,1.9844,1.9867,1.9865,1.9901,1.9906,1.9915,1.9971,1.9982,2.001,1.9966,2.0115,2.0119,2.0122,2.0143,2.0149,2.0155,0,0,0,0,0,1.9693,1.9741,1.9738,1.9751,1.9817,1.9867,1.9876,1.9886,1.9869,1.9893,1.991,1.9904,2.0,1.9977,1.9989,2.0018,2.0113,2.0118,2.0122,2.014,2.0148,2.0154,0,0,0,0,0,0,1.9707,1.9745,1.9743,1.9804,1.9832,1.9866,1.9896,1.9894,1.9927,1.9924,1.9934,1.9943,1.9996,2.0012,1.9986,2.0077,2.0054,2.0061,2.0065,2.0072,2.0078,2.0073,1.9969,0,0,0,0,0,1.9718,1.9756,1.9786,1.9837,1.9851,1.9871,1.9893,1.9898,1.9928,1.994,1.9961,1.999,2.0026,2.005,2.0085,2.0145,2.0152,2.0171,2.0177,2.0181,2.0187,2.0219,2.0228,2.0137,2.0137,2.0137,0,0,1.9739,1.9765,1.9788,1.984,1.9863,1.9901,1.9881,1.9923,1.9951,1.9946,1.9998,2.0014,2.0046,2.0103,2.0129,2.0118,2.0213,2.0187,2.019,2.0193,2.0224,2.0233,2.024,2.014,2.0139,2.0139,0,0,1.9798,1.9821,1.9866,1.9889,1.9923,1.9936,1.9947,1.998,1.9991,2.0043,2.004,2.0073,2.0136,2.0159,2.0178,2.0244,2.024,2.0255,2.0286,2.0317,2.0324,2.033,2.0353,2.0362,2.0261,2.0261,2.0261,0,1.982,1.9879,1.9888,1.993,1.9953,1.9951,1.9995,2.0016,2.0061,2.0076,2.0063,2.0141,2.0163,2.0224,2.024,2.0257,2.0268,2.0252,2.0322,2.0329,2.0335,2.0357,2.0366,2.0263,2.0262,2.0262,2.0262,0,1.9904,1.9944,1.9975,2.0019,2.0045,2.0088,2.0103,2.0128,2.0131,2.0144,2.0196,2.0222,2.0262,2.0277,2.0279,2.0338,2.033,2.032,2.0297,2.0345,2.0366,2.0374,2.0265,2.0264,2.0264,2.0263,0,0,1.9975,2.0022,2.0033,2.0052,2.009,2.0121,2.0163,2.0202,2.0223,2.0253,2.0288,2.0341,2.0331,2.0353,2.0359,2.0386,2.0436,2.0372,2.0373,2.0383,2.0501,2.0509,2.0518,2.0433,2.0434,2.0436,2.0498,0,2.0037,2.0112,2.0122,2.0189,2.0225,2.0223,2.0259,2.0286,2.0299,2.0331,2.0346,2.0383,2.0367,2.0381,2.0408,2.0424,2.0459,2.042,2.0465,2.0466,2.0457,2.0529,2.0538,2.0596,2.0506,2.0508,2.0509,0,2.012,2.0153,2.0223,2.0255,2.0271,2.0303,2.034,2.0371,2.04,2.0408,2.0432,2.0434,2.0476,2.0451,2.0509,2.0482,2.0501,2.0511,2.0514,2.0518,2.0491,2.0536,2.0614,2.0623,2.0522,2.0521,2.052,0,2.0164,2.0226,2.0276,2.0292,2.033,2.0353,2.037,2.0398,2.042,2.0452,2.0466,2.0502,2.0521,2.0548,2.0558,2.054,2.0615,2.0592,2.0622,2.0622,2.0639,2.0638,2.0721,2.0651,2.0651,2.0651,2.065,0,2.0233,2.0276,2.0296,2.0327,2.0374,2.0384,2.0431,2.0446,2.0471,2.0504,2.0503,2.0534,2.0546,2.0578,2.0586,2.0633,2.0641,2.0648,2.065,2.0648,2.0647,2.0661,2.0657,2.0653,2.0652,2.0652,2.0651,0,2.0291,2.0306,2.036,2.0391,2.04,2.0434,2.046,2.0489,2.0502,2.0544,2.0554,2.0573,2.0611,2.0624,2.067,2.0675,2.0729,2.0727,2.0719,2.072,2.0749,2.0746,2.0845,2.0858,2.0779,2.078,2.078,0,2.0334,2.0367,2.0402,2.0424,2.0442,2.0477,2.05,2.0511,2.0535,2.057,2.0595,2.0632,2.0663,2.0723,2.0741,2.0775,2.0774,2.0806,2.078,2.0777,2.0774,2.0772,2.0775,2.0812,2.0812,2.0813,2.0814,0,2.0408,2.0414,2.0447,2.0483,2.0511,2.054,2.0567,2.0585,2.06,2.0626,2.0665,2.0689,2.0736,2.0773,2.0808,2.0824,2.0821,2.0822,2.0831,2.0829,2.0823,2.0827,2.0733,2.082,2.0819,2.0819,2.0818,2.0818,2.0459,2.0488,2.0517,2.0554,2.0576,2.0602,2.0631,2.0647,2.068,2.0719,2.0723,2.0764,2.0791,2.0838,2.0856,2.0888,2.0879,2.0892,2.0895,2.0898,2.09,2.0818,2.0894,2.0894,2.0894,2.0894,2.0894,0,2.0534,2.0552,2.0586,2.0625,2.0654,2.0649,2.0679,2.0703,2.074,2.0766,2.0796,2.084,2.0876,2.0896,2.0931,2.0953,2.0952,2.0961,2.096,2.0963,2.0907,2.0895,2.0961,2.0961,2.0961,2.0961,2.0961,2.0961,2.0576,2.0624,2.0633,2.0692,2.0709,2.0751,2.0768,2.0791,2.0812,2.0861,2.0891,2.0904,2.0927,2.0964,2.0996,2.1001,2.1014,2.1024,2.1028,2.0975,2.0968,2.0961,2.095,2.1027,2.1027,2.1082,2.1083,2.1083]}]]